#timestamp,LO_Frequency,Hit,StdDev 
1500908415.4,286047000.8,N,1.2
1500908435.3,286047000.4,N,1.2
1500908455.1,286046999.9,N,1.2
1500908475.9,286047000.9,N,1.2
1500908495.7,286047000.2,N,1.2
1500908515.5,286047001.0,N,1.1
1500908535.4,286046998.2,N,1.2
1500908555.2,286046998.3,N,1.3
1500908575.0,286047000.7,N,1.2
1500908576.0,286047000.7,N,1.2
1500908595.8,286047000.0,N,1.2
1500908615.6,286047000.4,N,1.2
1500908635.5,286046999.7,N,1.2
1500908655.3,286047002.2,N,1.2
1500908675.1,286047002.2,N,1.2
1500908695.9,286047002.6,N,1.2
1500908715.3,286047004.3,Y,1.3
1500908735.1,286047000.8,N,1.3
1500908755.9,286046998.5,N,1.3
1500908775.7,286046998.5,N,1.4
1500908795.5,286046998.7,N,1.4
1500908815.4,286046999.5,N,1.4
1500908835.2,286046997.1,N,1.5
1500908855.1,286046997.3,N,1.6
1500908856.0,286046997.3,N,1.7
1500908875.8,286046997.9,N,1.7
1500908895.6,286046997.3,N,1.8
1500908915.5,286046995.3,N,1.9
1500908935.3,286046997.5,N,1.9
1500908955.2,286046995.3,N,2.0
1500908975.9,286046995.0,N,2.1
1500908995.7,286046995.7,N,2.2
1500909015.6,286046995.1,N,2.2
1500909035.4,286046997.4,N,2.2
1500909055.3,286046995.6,N,2.3
1500909075.1,286046996.3,N,2.3
1500909076.0,286046996.3,N,2.3
1500909095.8,286046993.4,N,2.5
1500909115.7,286046993.3,N,2.6
1500909135.5,286046994.3,N,2.6
1500909155.3,286046994.4,N,2.7
1500909175.2,286046992.6,N,2.8
1500909195.0,286046992.8,N,2.9
1500909195.9,286046992.8,N,2.9
1500909215.8,286046992.7,N,3.0
1500909235.6,286046991.9,N,3.1
1500909255.4,286046992.0,N,3.2
1500909275.3,286046990.5,Y,3.3
1500909295.1,286046993.6,N,3.3
1500909315.9,286046994.7,N,3.3
1500909335.7,286046991.9,N,3.3
1500909355.5,286046992.4,N,3.4
1500909375.4,286046990.2,N,3.5
1500909395.3,286046992.6,N,3.4
1500909415.1,286046992.4,N,3.4
1500909435.9,286046992.2,N,3.4
1500909455.7,286046992.0,N,3.4
1500909475.5,286046990.2,N,3.3
1500909495.4,286046992.7,N,3.2
1500909515.2,286046990.4,Y,3.2
1500909535.1,286046993.3,N,3.0
1500909536.0,286046993.3,N,2.7
1500909555.8,286046995.7,N,2.5
1500909575.7,286046997.7,N,2.5
1500909595.5,286046997.6,N,2.4
1500909615.3,286046997.7,N,2.4
1500909635.2,286046994.9,N,2.3
1500909655.0,286046995.7,N,2.3
1500909655.9,286046995.7,N,2.2
1500909675.7,286046995.6,N,2.2
1500909695.6,286046996.2,N,2.1
1500909715.4,286046995.9,N,2.1
1500909735.3,286046996.1,N,2.1
1500909755.1,286046993.9,N,2.0
1500909775.8,286046994.6,N,2.0
1500909795.7,286046994.7,N,2.0
1500909815.5,286046993.9,Y,2.0
1500909835.4,286047000.4,N,2.2
1500909855.2,286047000.6,N,2.4
1500909875.0,286047001.2,N,2.6
1500909876.0,286047001.2,N,2.8
1500909895.8,286047000.6,N,2.9
1500909915.6,286046998.1,N,2.9
1500909935.5,286046998.2,N,3.0
1500909955.3,286046998.1,N,3.0
1500909975.1,286046998.7,N,3.0
1500909995.9,286047001.0,N,3.2
1500910015.7,286047011.9,Y,4.0
1500910035.6,286047005.6,N,4.2
1500910055.4,286047005.5,N,4.4
1500910075.2,286047002.9,N,4.5
1500910095.1,286047004.1,N,4.6
1500910096.0,286047004.1,N,4.7
1500910115.8,286047001.3,N,4.7
1500910135.7,286047001.5,N,4.7
1500910155.5,286047004.0,N,4.7
1500910175.3,286047004.1,N,4.8
1500910195.2,286047003.4,N,4.8
1500910215.0,286047003.5,N,4.8
1500910215.9,286047003.5,N,4.7
1500910235.8,286047003.8,N,4.7
1500910255.6,286047003.5,N,4.7
1500910275.4,286047003.4,N,4.6
1500910295.3,286047003.5,N,4.6
1500910315.1,286047006.0,N,4.5
1500910335.9,286047003.9,N,4.4
1500910355.7,286047001.3,N,4.2
1500910375.5,286047001.5,N,4.1
1500910395.4,286047003.3,N,4.0
1500910415.2,286047001.9,N,3.9
1500910435.0,286047002.0,N,3.9
1500910435.9,286047002.0,N,3.9
1500910455.8,286047002.1,N,3.8
1500910475.6,286047002.2,N,3.8
1500910495.5,286047002.3,N,3.7
1500910515.3,286047002.0,N,3.6
1500910535.1,286047001.6,N,3.5
1500910555.9,286047001.4,N,3.4
1500910575.7,286047001.5,N,3.3
1500910595.4,286047001.8,N,3.2
1500910615.2,286047004.4,N,3.0
1500910635.0,286047002.6,N,2.8
1500910636.0,286047002.6,N,2.6
1500910655.8,286047002.2,N,2.3
1500910675.6,286047000.2,N,2.3
1500910695.5,286047002.2,N,2.3
1500910715.3,286047002.1,N,2.2
1500910735.1,286047001.5,N,2.2
1500910755.9,286047004.2,N,2.2
1500910775.7,286047003.1,N,2.1
1500910795.6,286047003.7,N,2.0
1500910815.4,286047004.4,N,1.9
1500910835.2,286047006.0,Y,2.0
1500910855.1,286047002.3,N,1.9
1500910856.0,286047002.3,N,1.8
1500910875.8,286047002.4,N,1.3
1500910895.7,286047002.6,N,1.3
1500910915.5,286047002.4,N,1.2
1500910935.3,286047002.5,N,1.2
1500910955.2,286047001.7,N,1.2
1500910975.0,286047001.5,N,1.2
1500910975.9,286047001.5,N,1.2
1500910995.8,286047003.5,N,1.2
1500911015.6,286047001.7,N,1.2
1500911035.4,286047001.6,N,1.2
1500911055.3,286047001.7,N,1.2
1500911075.1,286047003.9,Y,1.2
1500911095.9,286047000.3,N,1.2
1500911115.7,286047000.2,N,1.2
1500911135.5,286047000.3,N,1.3
1500911155.4,286047000.4,N,1.3
1500911175.2,286047000.3,N,1.3
1500911195.1,286046999.9,N,1.3
1500911196.0,286046999.9,N,1.3
1500911215.8,286047000.0,N,1.3
1500911235.6,286047002.8,N,1.3
1500911255.5,286047000.1,N,1.3
1500911275.3,286047001.8,N,1.3
1500911295.1,286047001.8,N,1.3
1500911315.9,286047001.4,N,1.3
1500911335.7,286047004.0,Y,1.3
1500911355.6,286047000.3,N,1.3
1500911375.4,286046999.9,N,1.4
1500911395.2,286046999.8,N,1.4
1500911415.1,286047002.5,N,1.4
1500911416.0,286047002.5,N,1.4
1500911435.8,286047004.3,Y,1.4
1500911455.7,286046999.9,N,1.5
1500911475.5,286047000.0,N,1.5
1500911495.3,286046999.8,N,1.5
1500911515.2,286047002.8,N,1.5
1500911535.0,286047000.3,N,1.5
1500911535.9,286047000.3,N,1.5
1500911555.8,286047002.1,N,1.5
1500911575.6,286047002.5,N,1.5
1500911595.4,286047000.0,N,1.5
1500911615.3,286047002.3,N,1.5
1500911635.1,286047002.2,N,1.5
1500911655.9,286046999.9,N,1.5
1500911675.7,286047000.2,N,1.5
1500911695.5,286047002.6,N,1.5
1500911715.4,286046999.8,N,1.5
1500911735.2,286047002.6,N,1.4
1500911755.1,286047001.4,N,1.3
1500911756.0,286047001.4,N,1.3
1500911775.8,286047001.9,N,1.3
1500911795.2,286047004.3,Y,1.3
1500911815.9,286047002.7,N,1.3
1500911835.7,286047002.8,N,1.3
1500911855.6,286047002.2,N,1.3
1500911875.4,286047001.5,N,1.3
1500911895.3,286047002.4,N,1.3
1500911915.1,286046999.8,N,1.3
1500911916.0,286046999.8,N,1.4
1500911935.8,286047002.6,N,1.3
1500911955.7,286047002.0,N,1.3
1500911975.5,286047002.5,N,1.3
1500911995.3,286047002.2,N,1.3
